Location: Caltech
(34.1382°N, 118.1253°W)
Time: 16:23:52
(UTC-07:00)

Cosmos 1980 Rocket - Visible Passes

Search period start: 21 April 2015 00:00
Search period end: 01 May 2015 00:00
Orbit: 828 x 851 km, 71.0° (Epoch: 21 April)

Date Brightness Start Highest point End Pass type
(mag) Time Alt. Az. Time Alt. Az. Time Alt. Az.
21 Apr 3.2 03:03:25 44° NE 03:03:25 44° NE 03:07:19 10° NNE visible
21 Apr 4.0 04:45:11 15° WNW 04:46:20 15° NW 04:49:26 10° NNW visible
22 Apr 3.5 02:48:14 37° NE 02:48:14 37° NE 02:51:40 10° NNE visible
22 Apr 3.9 04:30:00 16° WNW 04:30:39 16° NW 04:34:00 10° NNW visible
23 Apr 3.8 02:33:00 31° NE 02:33:00 31° NE 02:36:01 10° NNE visible
23 Apr 3.9 04:14:47 17° WNW 04:14:57 17° NW 04:18:32 10° NNW visible
24 Apr 4.0 02:17:45 27° NE 02:17:45 27° NE 02:20:21 10° NNE visible
24 Apr 3.9 03:59:31 18° NW 03:59:31 18° NW 04:03:03 10° NNW visible
25 Apr 4.2 02:02:28 24° NE 02:02:28 24° NE 02:04:41 10° NNE visible
25 Apr 3.9 03:44:14 19° NW 03:44:14 19° NW 03:47:34 10° NNW visible
26 Apr 4.4 01:47:09 21° NE 01:47:09 21° NE 01:49:01 10° NNE visible
26 Apr 4.0 03:28:54 20° NW 03:28:54 20° NW 03:32:03 10° N visible
27 Apr 4.5 01:31:47 18° NE 01:31:47 18° NE 01:33:20 10° NE visible
27 Apr 4.0 03:13:33 21° NW 03:13:33 21° NW 03:16:33 10° N visible
28 Apr 4.6 01:16:24 16° NE 01:16:24 16° NE 01:17:39 10° NE visible
28 Apr 4.0 02:58:10 21° NW 02:58:10 21° NW 03:01:01 10° N visible
29 Apr 4.7 01:00:59 15° NE 01:00:59 15° NE 01:01:58 10° NE visible
29 Apr 4.1 02:42:45 21° NNW 02:42:45 21° NNW 02:45:29 10° N visible
30 Apr 4.7 00:45:32 13° NE 00:45:32 13° NE 00:46:16 10° NE visible
30 Apr 4.1 02:27:18 22° NNW 02:27:18 22° NNW 02:29:57 10° N visible
